Theta_e
327 327 328 327 327 327 329 330 330 330 331 331 332 333 335 339 341 341 342 343 343 343 347 348 351 354 357 353 353 352 352 352 353 353 353 354 355 356 357 357 361 362 362 362
328 328 328 328 327 327 327 328 328 329 330 330 330 331 337 340 340 342 341 341 342 343 345 344 347 350 354 356 353 355 357 354 355 358 357 357 359 360 361 360 362 364 363 364
327 325 325 327 327 327 328 328 328 329 329 330 330 332 339 339 339 340 340 340 341 342 342 344 346 341 349 355 356 356 360 360 359 360 363 362 363 363 364 364 364 366 365 365
325 324 326 324 325 326 327 327 327 328 328 329 337 337 335 336 338 339 340 341 341 340 342 343 346 348 341 345 356 358 360 362 362 363 365 365 364 365 365 365 366 368 367 365
325 325 324 323 325 327 328 329 332 334 334 335 334 333 334 337 335 337 339 339 340 341 343 346 347 351 351 343 348 359 361 362 363 364 364 364 365 366 366 367 363 357 350 348
322 324 326 324 323 326 325 329 334 336 335 334 332 333 335 335 335 336 336 336 341 340 343 346 350 349 344 343 349 358 360 361 363 364 365 366 366 366 367 361 350 351 339 338
321 323 323 323 323 329 328 329 333 333 332 331 333 335 335 334 335 336 336 337 338 339 342 347 352 347 343 344 347 349 355 359 363 363 366 365 364 366 356 348 347 348 342 339
324 325 325 322 325 329 331 329 331 329 329 330 330 330 332 333 335 337 337 337 338 339 341 348 355 352 347 347 347 353 357 362 363 365 361 363 359 356 349 347 348 347 346 343
323 325 325 329 327 328 327 330 329 328 328 328 328 329 331 332 333 335 337 337 339 341 346 352 358 357 352 352 355 359 360 362 363 362 359 355 351 348 349 350 348 346 343 340
322 323 323 326 328 329 328 328 327 325 326 327 327 327 330 331 332 336 338 340 341 346 353 357 357 358 356 360 360 360 361 359 358 355 352 352 352 349 348 347 347 345 345 342
324 321 320 320 324 325 325 325 326 325 325 325 326 328 330 332 338 340 342 343 346 350 355 356 352 356 357 358 357 357 352 350 349 349 345 328 324 335 333 331 346 343 339 335
329 323 323 321 319 321 322 324 325 324 324 324 326 330 330 335 340 345 347 346 346 350 352 347 347 350 354 356 348 344 344 344 341 336 332 327 322 317 323 327 329 327 326 324
322 321 322 323 322 320 321 321 321 323 323 324 327 329 329 336 341 344 343 344 344 343 342 344 347 349 351 345 346 346 340 338 334 331 329 327 325 320 316 312 317 316 316 315
320 321 322 321 324 323 322 322 322 323 324 327 327 328 329 340 343 339 339 338 338 339 337 338 334 336 339 342 338 336 334 333 333 331 329 327 327 324 323 325 321 315 310 311
322 322 323 322 323 323 323 323 324 325 327 328 329 330 337 341 337 336 336 332 330 329 329 329 329 330 332 332 332 332 331 328 328 329 329 329 329 328 326 323 319 317 313 311
327 325 325 324 324 323 323 324 325 327 328 331 332 339 331 329 329 333 331 331 330 329 327 327 327 327 327 327 326 328 327 327 328 327 326 324 323 321 320 319 319 320 320 317
328 326 326 325 325 324 324 324 326 328 332 333 338 336 330 328 327 327 326 326 325 323 324 325 324 327 327 325 325 325 323 322 321 322 321 320 319 319 319 319 320 319 318 314
326 324 325 325 326 326 326 328 328 333 334 336 336 332 330 329 328 327 327 324 322 321 321 319 320 322 323 323 322 321 321 320 319 319 318 319 319 319 319 319 318 316 312 308
327 327 327 327 327 329 330 331 334 333 334 337 332 331 331 331 330 328 326 323 321 320 319 318 318 318 317 317 317 317 317 317 317 317 317 317 318 318 318 317 316 314 312 311
333 331 331 331 331 333 335 334 333 333 335 334 330 329 328 328 323 321 320 319 319 320 318 317 315 314 315 315 315 315 316 316 317 317 318 317 317 316 313 313 313 313 313 313
334 333 331 332 334 335 335 334 335 336 335 331 328 326 323 322 321 322 321 321 318 317 316 315 314 314 314 315 316 316 316 316 317 317 316 315 314 313 313 313 313 313 312 311
332 333 333 335 334 335 332 333 334 332 329 325 324 323 323 323 321 320 320 319 318 316 314 313 313 313 314 315 315 316 316 316 316 316 315 314 314 314 314 313 312 311 310 310
333 332 332 332 333 332 332 331 331 329 327 326 325 325 324 322 322 322 322 319 318 313 311 311 311 312 313 314 314 314 314 314 314 313 313 312 312 312 312 311 311 310 310 310
333 333 332 330 330 330 331 330 330 328 327 327 326 325 324 323 322 319 318 317 315 312 310 310 310 311 311 312 312 312 311 312 312 311 310 310 311 311 311 311 312 312 312 311
329 328 332 334 332 331 330 330 330 330 330 329 327 325 324 322 322 321 319 317 315 312 311 309 310 311 312 312 312 312 312 312 312 312 312 312 312 313 313 313 312 312 312 312
329 330 329 330 332 332 332 332 332 330 328 325 322 321 321 322 321 322 320 318 315 313 314 314 314 314 314 314 314 315 314 314 314 314 314 314 315 315 315 315 314 314 313 313
326 327 329 329 330 331 331 330 328 324 323 322 323 322 322 320 317 316 315 314 313 314 314 314 314 314 315 315 315 315 315 315 314 314 313 313 314 315 315 315 314 312 311 312
Wind_Speed
19 21 21 21 21 21 19 17 18 15 13 13 14 7 9 7 10 8 9 12 12 6 11 11 19 21 24 28 29 30 30 32 33 33 32 30 27 26 25 22 20 20 21 19
20 19 21 25 25 25 26 26 20 21 23 19 18 10 10 7 8 5 9 12 11 10 7 8 15 17 23 26 27 29 31 33 31 30 29 29 27 25 22 22 21 18 19 17
21 17 19 25 25 28 27 27 23 25 24 20 20 12 9 8 6 5 9 11 12 12 10 10 11 16 23 25 27 30 30 30 31 32 31 30 27 24 23 23 21 20 14 11
17 18 23 19 18 17 18 19 23 29 26 11 10 10 9 8 3 8 10 11 11 11 15 17 16 17 18 24 28 32 33 33 31 30 28 26 26 25 24 21 16 7 3 3
18 18 23 23 9 12 17 20 13 13 5 7 10 12 13 10 8 11 12 13 14 17 18 20 20 20 20 23 27 30 34 37 35 29 26 27 27 27 24 22 24 28 25 15
18 19 23 22 15 14 17 17 13 9 7 6 7 10 5 10 14 16 15 19 19 22 22 21 21 17 19 21 26 29 29 27 28 30 29 29 29 28 30 29 37 33 31 36
18 19 20 15 11 2 16 7 8 6 3 4 6 7 15 14 15 15 18 24 25 23 22 23 21 16 12 13 22 22 24 23 27 30 32 31 30 29 27 29 28 31 30 20
16 21 28 14 7 16 7 2 2 2 2 4 7 10 13 14 16 17 18 23 26 26 24 22 17 13 11 13 15 15 20 22 24 27 28 30 30 27 25 21 17 19 19 18
20 13 4 4 10 3 5 6 3 5 6 6 9 12 13 14 17 17 18 22 25 26 27 22 14 10 10 9 10 15 20 22 24 24 22 23 27 25 26 22 20 21 21 18
22 22 25 18 15 10 9 10 8 8 8 9 11 13 15 16 16 16 17 19 24 24 21 17 14 10 6 9 14 19 21 22 23 23 22 27 21 20 16 16 17 19 19 17
28 28 25 27 20 14 19 18 14 14 13 13 13 14 13 17 18 17 17 21 21 22 19 11 7 6 5 12 18 19 24 24 26 30 23 27 26 20 16 14 12 15 13 13
20 22 21 22 22 25 23 14 14 16 17 17 14 13 14 14 15 20 18 20 17 19 9 2 1 4 9 17 26 31 29 26 26 28 27 28 30 29 26 21 20 17 16 13
22 24 26 27 25 23 22 19 17 17 18 16 15 13 14 14 17 20 20 15 4 2 5 7 7 13 17 29 29 25 29 27 27 29 29 32 30 28 22 20 19 16 12 12
23 21 26 29 20 20 19 18 18 16 16 15 15 16 17 12 10 8 4 1 6 8 15 18 22 21 22 28 30 27 26 23 20 20 19 20 19 24 27 19 13 12 12 13
24 25 27 23 21 18 17 16 15 15 14 13 14 12 13 5 2 5 10 17 20 22 22 23 24 24 27 29 34 31 28 25 25 19 17 18 18 18 17 15 13 13 11 11
23 23 23 22 20 17 15 15 15 14 13 12 9 1 10 9 8 11 16 16 17 14 17 22 23 23 29 28 29 26 25 24 24 22 17 13 16 14 13 13 12 11 10 9
11 14 11 15 15 16 16 14 13 11 10 6 4 10 13 9 17 19 19 18 22 23 22 18 18 21 24 24 23 22 19 19 21 21 18 11 11 12 12 12 11 11 9 6
7 7 14 12 11 12 12 13 11 9 8 9 16 18 13 13 12 13 13 16 23 31 26 17 17 18 17 19 22 22 19 17 17 19 14 12 12 13 13 12 12 12 11 10
8 6 5 3 7 7 8 11 10 13 9 17 22 14 16 19 19 21 21 21 19 24 18 11 14 17 17 16 18 23 22 18 17 15 14 16 14 12 12 11 11 10 10 9
9 5 4 7 8 7 7 11 22 14 15 24 24 19 18 20 20 20 21 21 17 18 13 11 16 22 22 19 19 21 22 17 16 14 12 14 13 12 11 10 9 8 7 5
13 5 3 2 5 11 17 16 21 20 23 25 22 20 20 20 18 17 18 17 15 17 16 15 17 19 19 16 17 17 18 18 15 14 14 14 14 11 10 8 7 6 5 3
14 16 14 9 14 17 21 21 23 25 27 26 23 23 23 21 22 21 19 19 13 15 14 13 15 19 17 15 15 16 17 15 14 14 14 13 11 9 8 7 6 4 4 3
16 18 19 20 18 21 25 24 24 27 25 21 18 17 19 19 18 17 12 14 16 16 15 15 19 21 17 16 16 16 15 14 14 13 11 9 8 6 5 4 4 2 1 1
20 20 21 24 27 24 16 23 26 26 26 21 19 19 18 18 21 20 20 19 17 17 17 15 17 17 15 15 15 15 14 13 11 9 9 7 5 4 2 1 1 2 3 4
17 19 19 21 18 14 21 23 24 22 21 20 19 19 19 20 19 16 16 16 16 15 15 15 16 15 14 14 14 13 12 11 9 8 6 5 3 2 2 4 6 6 6 7
16 15 17 19 17 19 20 21 19 18 21 21 20 20 20 18 16 14 12 12 12 11 12 11 11 12 13 13 12 11 10 7 5 5 4 4 5 7 7 9 11 10 10 11
13 12 14 16 17 17 19 20 22 20 20 20 19 17 15 14 13 12 10 11 12 12 13 11 11 10 9 8 7 6 4 3 4 6 7 8 9 9 11 13 13 14 17 17
Wind_Direction
272 277 280 278 269 268 253 253 265 279 249 257 272 347 334 351 13 26 29 22 17 341 283 240 195 217 218 216 206 206 203 206 208 208 211 213 213 213 214 214 217 220 224 227
268 272 267 267 262 257 255 254 253 253 256 266 277 287 290 330 354 22 8 358 356 356 343 294 270 235 227 224 222 209 205 205 208 207 205 204 204 203 204 205 208 215 221 220
262 264 272 260 253 256 258 254 252 248 249 249 256 261 285 301 306 11 353 350 340 335 333 321 298 266 238 228 215 210 211 214 207 202 202 197 192 188 194 198 200 206 211 215
265 272 253 256 270 264 269 263 244 246 248 245 269 280 273 274 39 345 341 338 329 328 324 317 306 292 270 230 217 211 205 207 210 206 200 194 185 185 188 192 194 165 144 162
255 250 258 263 244 273 244 258 220 253 220 238 262 278 256 155 351 334 331 328 328 325 321 311 302 288 265 237 221 214 212 205 202 196 196 189 187 181 177 163 136 124 93 7
242 246 250 264 262 322 237 253 184 209 209 242 281 247 161 358 336 333 330 328 321 328 320 322 317 298 262 234 219 216 217 213 198 187 184 184 182 179 168 160 147 149 166 194
238 252 257 263 258 342 221 258 125 175 203 269 281 331 319 325 326 324 323 321 326 325 325 331 327 311 267 227 230 224 215 207 191 185 179 173 174 171 163 158 156 160 171 162
234 248 245 242 272 231 7 99 157 214 295 307 312 307 310 317 316 319 321 322 326 322 325 328 325 309 269 235 236 213 198 181 184 174 173 168 163 163 158 148 142 130 145 135
269 254 267 309 280 60 314 270 244 306 311 313 311 314 314 310 312 315 316 316 318 319 316 319 325 306 271 236 190 173 169 168 167 168 165 162 150 145 142 146 150 150 152 155
274 258 262 258 246 241 283 270 274 288 306 304 308 311 307 309 311 311 310 310 316 314 306 310 319 302 254 166 164 162 160 159 149 141 134 135 135 136 141 151 152 153 148 147
267 258 263 262 260 265 268 274 258 280 299 307 307 308 312 307 312 312 308 311 321 306 299 310 326 316 179 159 157 141 127 126 124 121 120 90 80 84 88 75 135 127 140 150
251 258 260 256 256 257 260 266 266 287 290 289 295 299 306 306 315 310 313 315 311 295 290 271 161 166 147 142 124 121 121 126 125 120 113 104 99 88 89 102 116 130 131 131
266 263 263 265 263 257 264 268 276 276 275 280 286 292 303 298 307 306 307 313 323 288 206 157 128 120 128 123 133 128 119 121 125 123 123 126 123 119 110 91 103 108 112 117
257 271 251 257 260 253 246 251 255 257 265 269 281 293 296 314 293 294 284 78 82 80 64 78 72 67 90 106 108 107 100 102 106 108 114 120 127 129 129 134 136 105 91 102
250 242 248 248 247 242 235 234 240 253 261 272 279 280 294 260 107 119 100 96 94 87 80 77 81 81 96 101 103 102 104 108 106 111 111 126 124 118 115 125 117 112 109 92
256 221 236 222 226 221 224 224 232 247 255 267 265 10 91 103 98 94 89 88 92 80 78 85 82 91 101 101 100 102 106 115 115 115 114 105 96 104 110 118 135 145 140 139
101 149 196 210 205 208 211 222 232 242 244 231 224 126 109 113 93 84 84 83 78 68 66 73 79 96 104 105 99 99 100 100 102 101 90 97 119 124 126 125 135 129 130 147
69 134 178 189 192 197 204 207 218 218 202 173 113 108 106 107 101 90 89 96 93 84 65 53 78 86 93 103 113 113 106 97 94 95 120 128 120 119 124 128 126 130 136 143
89 122 196 238 209 206 228 212 183 141 144 123 110 97 111 113 115 111 104 87 72 81 91 101 97 95 85 94 101 99 95 98 103 108 112 114 110 114 113 122 131 138 142 155
57 99 170 161 168 180 173 144 139 147 132 118 112 102 87 90 90 94 93 82 79 91 114 112 98 82 78 73 76 91 98 97 98 107 114 108 106 106 110 112 120 128 137 136
24 51 51 224 182 133 103 112 125 115 110 106 101 96 96 100 104 101 92 84 69 77 69 67 70 77 76 79 79 84 99 107 112 110 108 107 113 117 121 123 122 124 116 101
11 47 36 74 93 83 88 84 93 100 97 95 97 103 101 95 92 87 85 92 82 75 77 78 84 92 95 97 98 95 92 100 107 109 110 115 122 126 123 129 131 127 119 113
34 42 45 54 87 83 85 86 88 93 97 101 106 109 105 109 107 96 88 85 83 84 85 85 90 86 85 85 88 92 96 97 97 99 107 111 106 100 107 112 109 114 84 321
42 46 61 66 73 74 78 80 86 91 96 99 104 106 105 98 92 92 96 94 93 87 85 87 90 87 86 87 88 88 90 91 93 95 98 99 98 108 106 70 308 288 272 260
60 52 58 76 80 78 85 92 94 95 97 98 97 92 95 94 98 99 97 98 96 95 96 95 94 90 90 91 92 93 90 87 90 90 83 73 51 13 322 296 280 275 274 274
36 63 63 64 80 97 106 107 103 104 105 100 95 96 92 95 103 107 106 108 110 116 108 103 97 97 94 89 84 80 73 66 51 38 18 349 325 304 304 293 291 289 286 284
51 42 73 73 71 82 92 91 98 95 89 91 90 91 92 89 88 92 101 104 103 103 101 100 97 88 81 77 70 63 50 28 7 355 338 324 312 316 307 304 305 299 284 274